Time,TemperatureF,DewpointF,PressureIn,WindDirection,WindDirectionDegrees,WindSpeedMPH,WindSpeedGustMPH,Humidity,HourlyPrecipIn,Conditions,Clouds,dailyrainin,SoftwareType,DateUTC
2013-01-14 00:03:00,20.0,14.0,30.09,SE,126,0.0,3.0,76,0.00,,,0.00,,2013-01-14 06:03:00,
2013-01-14 00:12:00,20.0,14.0,30.09,SE,126,0.0,3.0,76,0.00,,,0.00,,2013-01-14 06:12:00,
2013-01-14 00:22:00,20.0,14.0,30.09,SE,126,0.0,3.0,76,0.00,,,0.00,,2013-01-14 06:22:00,
2013-01-14 00:33:00,19.0,13.0,30.10,SE,126,0.0,3.0,78,0.00,,,0.00,,2013-01-14 06:33:00,
2013-01-14 00:43:00,19.0,13.0,30.10,SE,126,0.0,3.0,78,0.00,,,0.00,,2013-01-14 06:43:00,
2013-01-14 00:53:00,19.0,13.0,30.10,SE,126,0.0,3.0,78,0.00,,,0.00,,2013-01-14 06:53:00,
2013-01-14 01:02:00,18.0,13.0,30.11,SE,126,0.0,1.0,80,0.00,,,0.00,,2013-01-14 07:02:00,
2013-01-14 01:12:00,18.0,13.0,30.11,SE,126,0.0,1.0,80,0.00,,,0.00,,2013-01-14 07:12:00,
2013-01-14 01:22:00,18.0,13.0,30.11,SE,126,0.0,1.0,80,0.00,,,0.00,,2013-01-14 07:22:00,
2013-01-14 01:33:00,16.0,11.0,30.14,SE,126,0.0,0.0,81,0.00,,,0.00,,2013-01-14 07:33:00,
2013-01-14 01:43:00,16.0,11.0,30.14,SE,126,0.0,0.0,81,0.00,,,0.00,,2013-01-14 07:43:00,
2013-01-14 01:53:00,16.0,11.0,30.14,SE,126,0.0,0.0,81,0.00,,,0.00,,2013-01-14 07:53:00,
2013-01-14 02:02:00,14.0,10.0,30.15,SE,126,0.0,0.0,82,0.00,,,0.00,,2013-01-14 08:02:00,
2013-01-14 02:12:00,14.0,10.0,30.15,SE,126,0.0,0.0,82,0.00,,,0.00,,2013-01-14 08:12:00,
2013-01-14 02:22:00,14.0,10.0,30.15,SE,126,0.0,0.0,82,0.00,,,0.00,,2013-01-14 08:22:00,
2013-01-14 02:32:00,16.0,13.0,30.13,SE,126,1.0,3.0,86,0.00,,,0.00,,2013-01-14 08:32:00,
2013-01-14 02:43:00,16.0,13.0,30.13,SE,126,1.0,3.0,86,0.00,,,0.00,,2013-01-14 08:43:00,
2013-01-14 02:53:00,16.0,13.0,30.13,SE,126,1.0,3.0,86,0.00,,,0.00,,2013-01-14 08:53:00,
2013-01-14 03:02:00,18.0,15.0,30.13,SE,126,0.0,3.0,86,0.00,,,0.00,,2013-01-14 09:02:00,
2013-01-14 03:12:00,18.0,15.0,30.13,SE,126,0.0,3.0,86,0.00,,,0.00,,2013-01-14 09:12:00,
2013-01-14 03:22:00,18.0,15.0,30.13,SE,126,0.0,3.0,86,0.00,,,0.00,,2013-01-14 09:22:00,
2013-01-14 03:33:00,16.0,12.0,30.15,SE,126,0.0,2.0,83,0.00,,,0.00,,2013-01-14 09:33:00,
2013-01-14 03:43:00,16.0,12.0,30.15,SE,126,0.0,2.0,83,0.00,,,0.00,,2013-01-14 09:43:00,
2013-01-14 03:53:00,16.0,12.0,30.15,SE,126,0.0,2.0,83,0.00,,,0.00,,2013-01-14 09:53:00,
2013-01-14 04:02:00,14.0,10.0,30.14,SE,126,0.0,0.0,83,0.00,,,0.00,,2013-01-14 10:02:00,
2013-01-14 04:12:00,14.0,10.0,30.14,SE,126,0.0,0.0,83,0.00,,,0.00,,2013-01-14 10:12:00,
2013-01-14 04:22:00,14.0,10.0,30.14,SE,126,0.0,0.0,83,0.00,,,0.00,,2013-01-14 10:22:00,
2013-01-14 04:32:00,15.0,12.0,30.12,ESE,123,1.0,3.0,87,0.00,,,0.00,,2013-01-14 10:32:00,
2013-01-14 04:43:00,15.0,12.0,30.12,ESE,123,1.0,3.0,87,0.00,,,0.00,,2013-01-14 10:43:00,
2013-01-14 04:53:00,15.0,12.0,30.12,ESE,123,1.0,3.0,87,0.00,,,0.00,,2013-01-14 10:53:00,
2013-01-14 05:02:00,17.0,14.0,30.12,North,0,0.0,6.0,86,0.00,,,0.00,,2013-01-14 11:02:00,
2013-01-14 05:12:00,17.0,14.0,30.12,North,0,0.0,6.0,86,0.00,,,0.00,,2013-01-14 11:12:00,
2013-01-14 05:22:00,17.0,14.0,30.12,North,0,0.0,6.0,86,0.00,,,0.00,,2013-01-14 11:22:00,
2013-01-14 05:32:00,20.0,16.0,30.08,North,0,1.0,6.0,86,0.00,,,0.00,,2013-01-14 11:32:00,
2013-01-14 05:43:00,20.0,16.0,30.08,North,0,1.0,6.0,86,0.00,,,0.00,,2013-01-14 11:43:00,
2013-01-14 05:53:00,20.0,16.0,30.08,North,0,1.0,6.0,86,0.00,,,0.00,,2013-01-14 11:53:00,
2013-01-14 06:03:00,19.0,15.0,30.11,North,0,0.0,3.0,85,0.00,,,0.00,,2013-01-14 12:03:00,
2013-01-14 06:12:00,19.0,15.0,30.11,North,0,0.0,3.0,85,0.00,,,0.00,,2013-01-14 12:12:00,
2013-01-14 06:23:00,19.0,15.0,30.11,North,0,0.0,3.0,85,0.00,,,0.00,,2013-01-14 12:23:00,
2013-01-14 06:33:00,20.0,16.0,30.09,North,0,1.0,6.0,85,0.00,,,0.00,,2013-01-14 12:33:00,
2013-01-14 06:43:00,20.0,16.0,30.09,North,0,1.0,6.0,85,0.00,,,0.00,,2013-01-14 12:43:00,
2013-01-14 06:53:00,20.0,16.0,30.09,North,0,1.0,6.0,85,0.00,,,0.00,,2013-01-14 12:53:00,
2013-01-14 07:03:00,19.0,15.0,30.14,North,9,3.0,6.0,85,0.00,,,0.00,,2013-01-14 13:03:00,
2013-01-14 07:12:00,19.0,15.0,30.14,North,9,3.0,6.0,85,0.00,,,0.00,,2013-01-14 13:12:00,
2013-01-14 07:23:00,19.0,15.0,30.14,North,9,3.0,6.0,85,0.00,,,0.00,,2013-01-14 13:23:00,
2013-01-14 07:33:00,16.0,12.0,30.17,NNE,14,1.0,5.0,83,0.00,,,0.00,,2013-01-14 13:33:00,
2013-01-14 07:43:00,16.0,12.0,30.17,NNE,14,1.0,5.0,83,0.00,,,0.00,,2013-01-14 13:43:00,
2013-01-14 07:53:00,16.0,12.0,30.17,NNE,14,1.0,5.0,83,0.00,,,0.00,,2013-01-14 13:53:00,
2013-01-14 08:03:00,13.0,9.0,30.23,NNE,14,0.0,2.0,83,0.00,,,0.00,,2013-01-14 14:03:00,
2013-01-14 08:13:00,13.0,9.0,30.23,NNE,14,0.0,2.0,83,0.00,,,0.00,,2013-01-14 14:13:00,
2013-01-14 08:22:00,13.0,9.0,30.23,NNE,14,0.0,2.0,83,0.00,,,0.00,,2013-01-14 14:22:00,
2013-01-14 08:33:00,13.0,9.0,30.24,NNW,333,0.0,5.0,83,0.00,,,0.00,,2013-01-14 14:33:00,
2013-01-14 08:43:00,13.0,9.0,30.24,NNW,333,0.0,5.0,83,0.00,,,0.00,,2013-01-14 14:43:00,
2013-01-14 08:53:00,13.0,9.0,30.24,NNW,333,0.0,5.0,83,0.00,,,0.00,,2013-01-14 14:53:00,
2013-01-14 09:03:00,12.0,8.0,30.26,NNW,333,0.0,0.0,84,0.00,,,0.00,,2013-01-14 15:03:00,
2013-01-14 09:12:00,12.0,8.0,30.26,NNW,333,0.0,0.0,84,0.00,,,0.00,,2013-01-14 15:12:00,
2013-01-14 09:23:00,12.0,8.0,30.26,NNW,333,0.0,0.0,84,0.00,,,0.00,,2013-01-14 15:23:00,
2013-01-14 09:33:00,16.0,12.0,30.22,NNW,333,0.0,1.0,84,0.00,,,0.00,,2013-01-14 15:33:00,
2013-01-14 09:43:00,16.0,12.0,30.22,NNW,333,0.0,1.0,84,0.00,,,0.00,,2013-01-14 15:43:00,
2013-01-14 09:53:00,16.0,12.0,30.22,NNW,333,0.0,1.0,84,0.00,,,0.00,,2013-01-14 15:53:00,
2013-01-14 10:03:00,24.0,19.0,30.18,NNW,333,0.0,2.0,80,0.00,,,0.00,,2013-01-14 16:03:00,
2013-01-14 10:12:00,24.0,19.0,30.18,NNW,333,0.0,2.0,80,0.00,,,0.00,,2013-01-14 16:12:00,
2013-01-14 10:23:00,24.0,19.0,30.18,NNW,333,0.0,2.0,80,0.00,,,0.00,,2013-01-14 16:23:00,
2013-01-14 10:33:00,29.0,20.0,30.13,NNW,333,0.0,2.0,70,0.00,,,0.00,,2013-01-14 16:33:00,
2013-01-14 10:43:00,29.0,20.0,30.13,NNW,333,0.0,2.0,70,0.00,,,0.00,,2013-01-14 16:43:00,
2013-01-14 10:53:00,29.0,20.0,30.13,NNW,333,0.0,2.0,70,0.00,,,0.00,,2013-01-14 16:53:00,
2013-01-14 11:03:00,34.0,22.0,30.12,NE,48,3.0,8.0,60,0.00,,,0.00,,2013-01-14 17:03:00,
2013-01-14 11:12:00,34.0,22.0,30.12,NE,48,3.0,8.0,60,0.00,,,0.00,,2013-01-14 17:12:00,
2013-01-14 11:23:00,34.0,22.0,30.12,NE,48,3.0,8.0,60,0.00,,,0.00,,2013-01-14 17:23:00,
2013-01-14 11:33:00,33.0,21.0,30.11,ESE,119,5.0,13.0,60,0.00,,,0.00,,2013-01-14 17:33:00,
2013-01-14 11:43:00,33.0,21.0,30.11,ESE,119,5.0,13.0,60,0.00,,,0.00,,2013-01-14 17:43:00,
2013-01-14 11:54:00,33.0,21.0,30.11,ESE,119,5.0,13.0,60,0.00,,,0.00,,2013-01-14 17:54:00,
2013-01-14 12:03:00,30.0,20.0,30.13,SE,142,8.0,16.0,66,0.00,,,0.00,,2013-01-14 18:03:00,
2013-01-14 12:13:00,30.0,20.0,30.13,SE,142,8.0,16.0,66,0.00,,,0.00,,2013-01-14 18:13:00,
2013-01-14 12:23:00,30.0,20.0,30.13,SE,142,8.0,16.0,66,0.00,,,0.00,,2013-01-14 18:23:00,
2013-01-14 12:33:00,32.0,21.0,30.11,SSE,152,7.0,14.0,64,0.00,,,0.00,,2013-01-14 18:33:00,
2013-01-14 12:43:00,32.0,21.0,30.11,SSE,152,7.0,14.0,64,0.00,,,0.00,,2013-01-14 18:43:00,
2013-01-14 12:53:00,32.0,21.0,30.11,SSE,152,7.0,14.0,64,0.00,,,0.00,,2013-01-14 18:53:00,
2013-01-14 13:03:00,34.0,22.0,30.11,ESE,109,5.0,12.0,62,0.00,,,0.00,,2013-01-14 19:03:00,
2013-01-14 13:12:00,34.0,22.0,30.11,ESE,109,5.0,12.0,62,0.00,,,0.00,,2013-01-14 19:12:00,
2013-01-14 13:22:00,34.0,22.0,30.11,ESE,109,5.0,12.0,62,0.00,,,0.00,,2013-01-14 19:22:00,
2013-01-14 13:33:00,36.0,23.0,30.07,East,79,5.0,12.0,59,0.00,,,0.00,,2013-01-14 19:33:00,
2013-01-14 13:43:00,36.0,23.0,30.07,East,79,5.0,12.0,59,0.00,,,0.00,,2013-01-14 19:43:00,
2013-01-14 13:53:00,36.0,23.0,30.07,East,79,5.0,12.0,59,0.00,,,0.00,,2013-01-14 19:53:00,
2013-01-14 14:03:00,37.0,23.0,30.02,NE,54,5.0,12.0,57,0.00,,,0.00,,2013-01-14 20:03:00,
2013-01-14 14:13:00,37.0,23.0,30.02,NE,54,5.0,12.0,57,0.00,,,0.00,,2013-01-14 20:13:00,
2013-01-14 14:22:00,37.0,23.0,30.02,NE,54,5.0,12.0,57,0.00,,,0.00,,2013-01-14 20:22:00,
2013-01-14 14:33:00,37.0,23.0,30.02,NE,54,5.0,12.0,57,0.00,,,0.00,,2013-01-14 20:33:00,
2013-01-14 15:03:00,36.0,21.0,30.04,SE,140,6.0,14.0,54,0.00,,,0.00,,2013-01-14 21:03:00,
2013-01-14 15:12:00,36.0,21.0,30.04,SE,140,6.0,14.0,54,0.00,,,0.00,,2013-01-14 21:12:00,
2013-01-14 15:23:00,36.0,21.0,30.04,SE,140,6.0,14.0,54,0.00,,,0.00,,2013-01-14 21:23:00,
2013-01-14 15:33:00,36.0,22.0,30.05,East,79,6.0,13.0,56,0.00,,,0.00,,2013-01-14 21:33:00,
2013-01-14 15:43:00,36.0,22.0,30.05,East,79,6.0,13.0,56,0.00,,,0.00,,2013-01-14 21:43:00,
2013-01-14 15:53:00,36.0,22.0,30.05,East,79,6.0,13.0,56,0.00,,,0.00,,2013-01-14 21:53:00,
2013-01-14 16:03:00,36.0,22.0,30.04,NE,48,5.0,12.0,56,0.00,,,0.00,,2013-01-14 22:03:00,
2013-01-14 16:12:00,36.0,22.0,30.04,NE,48,5.0,12.0,56,0.00,,,0.00,,2013-01-14 22:12:00,
2013-01-14 16:23:00,36.0,22.0,30.04,NE,48,5.0,12.0,56,0.00,,,0.00,,2013-01-14 22:23:00,
2013-01-14 16:33:00,35.0,22.0,30.04,ENE,75,7.0,15.0,58,0.00,,,0.00,,2013-01-14 22:33:00,
2013-01-14 16:43:00,35.0,22.0,30.04,ENE,75,7.0,15.0,58,0.00,,,0.00,,2013-01-14 22:43:00,
2013-01-14 16:53:00,35.0,22.0,30.04,ENE,75,7.0,15.0,58,0.00,,,0.00,,2013-01-14 22:53:00,
2013-01-14 17:03:00,34.0,22.0,30.06,ENE,64,4.0,13.0,62,0.00,,,0.00,,2013-01-14 23:03:00,
2013-01-14 17:12:00,34.0,22.0,30.06,ENE,64,4.0,13.0,62,0.00,,,0.00,,2013-01-14 23:12:00,
2013-01-14 17:23:00,34.0,22.0,30.06,ENE,64,4.0,13.0,62,0.00,,,0.00,,2013-01-14 23:23:00,
2013-01-14 17:33:00,31.0,21.0,30.09,ENE,73,3.0,10.0,66,0.00,,,0.00,,2013-01-14 23:33:00,
2013-01-14 17:43:00,31.0,21.0,30.09,ENE,73,3.0,10.0,66,0.00,,,0.00,,2013-01-14 23:43:00,
2013-01-14 17:53:00,31.0,21.0,30.09,ENE,73,3.0,10.0,66,0.00,,,0.00,,2013-01-14 23:53:00,
2013-01-14 18:02:00,27.0,20.0,30.11,SSE,152,9.0,18.0,73,0.00,,,0.00,,2013-01-15 00:02:00,
2013-01-14 18:12:00,27.0,20.0,30.11,SSE,152,9.0,18.0,73,0.00,,,0.00,,2013-01-15 00:12:00,
2013-01-14 18:22:00,27.0,20.0,30.11,SSE,152,9.0,18.0,73,0.00,,,0.00,,2013-01-15 00:22:00,
2013-01-14 18:33:00,25.0,19.0,30.14,ESE,117,2.0,20.0,78,0.00,,,0.00,,2013-01-15 00:33:00,
2013-01-14 18:43:00,25.0,19.0,30.14,ESE,117,2.0,20.0,78,0.00,,,0.00,,2013-01-15 00:43:00,
2013-01-14 18:53:00,25.0,19.0,30.14,ESE,117,2.0,20.0,78,0.00,,,0.00,,2013-01-15 00:53:00,
2013-01-14 19:02:00,24.0,19.0,30.20,NE,51,2.0,10.0,82,0.00,,,0.00,,2013-01-15 01:02:00,
2013-01-14 19:12:00,24.0,19.0,30.20,NE,51,2.0,10.0,82,0.00,,,0.00,,2013-01-15 01:12:00,
2013-01-14 19:22:00,24.0,19.0,30.20,NE,51,2.0,10.0,82,0.00,,,0.00,,2013-01-15 01:22:00,
2013-01-14 19:32:00,24.0,20.0,30.20,NE,48,3.0,12.0,84,0.00,,,0.00,,2013-01-15 01:32:00,
2013-01-14 19:43:00,24.0,20.0,30.20,NE,48,3.0,12.0,84,0.00,,,0.00,,2013-01-15 01:43:00,
2013-01-14 19:52:00,24.0,20.0,30.20,NE,48,3.0,12.0,84,0.00,,,0.00,,2013-01-15 01:52:00,
2013-01-14 20:02:00,23.0,19.0,30.23,SSE,160,2.0,10.0,85,0.00,,,0.00,,2013-01-15 02:02:00,
2013-01-14 20:12:00,23.0,19.0,30.23,SSE,160,2.0,10.0,85,0.00,,,0.00,,2013-01-15 02:12:00,
2013-01-14 20:22:00,23.0,19.0,30.23,SSE,160,2.0,10.0,85,0.00,,,0.00,,2013-01-15 02:22:00,
2013-01-14 20:32:00,23.0,19.0,30.25,ENE,65,3.0,8.0,85,0.00,,,0.00,,2013-01-15 02:32:00,
2013-01-14 20:43:00,23.0,19.0,30.25,ENE,65,3.0,8.0,85,0.00,,,0.00,,2013-01-15 02:43:00,
2013-01-14 20:53:00,23.0,19.0,30.25,ENE,65,3.0,8.0,85,0.00,,,0.00,,2013-01-15 02:53:00,
2013-01-14 21:02:00,23.0,19.0,30.19,ESE,110,3.0,9.0,83,0.00,,,0.00,,2013-01-15 03:02:00,
2013-01-14 21:12:00,23.0,19.0,30.19,ESE,110,3.0,9.0,83,0.00,,,0.00,,2013-01-15 03:12:00,
2013-01-14 21:22:00,23.0,19.0,30.19,ESE,110,3.0,9.0,83,0.00,,,0.00,,2013-01-15 03:22:00,
2013-01-14 21:33:00,23.0,18.0,30.19,East,82,3.0,12.0,82,0.00,,,0.00,,2013-01-15 03:33:00,
2013-01-14 21:43:00,23.0,18.0,30.19,East,82,3.0,12.0,82,0.00,,,0.00,,2013-01-15 03:43:00,
2013-01-14 21:53:00,23.0,18.0,30.19,East,82,3.0,12.0,82,0.00,,,0.00,,2013-01-15 03:53:00,
2013-01-14 22:02:00,22.0,17.0,30.13,East,95,1.0,7.0,82,0.00,,,0.00,,2013-01-15 04:02:00,
2013-01-14 22:12:00,22.0,17.0,30.13,East,95,1.0,7.0,82,0.00,,,0.00,,2013-01-15 04:12:00,
2013-01-14 22:22:00,22.0,17.0,30.13,East,95,1.0,7.0,82,0.00,,,0.00,,2013-01-15 04:22:00,
2013-01-14 22:32:00,22.0,18.0,30.12,East,92,2.0,6.0,83,0.00,,,0.00,,2013-01-15 04:32:00,
2013-01-14 22:42:00,22.0,18.0,30.12,East,92,2.0,6.0,83,0.00,,,0.00,,2013-01-15 04:42:00,
2013-01-14 22:52:00,22.0,18.0,30.12,East,92,2.0,6.0,83,0.00,,,0.00,,2013-01-15 04:52:00,
2013-01-14 23:03:00,22.0,17.0,30.13,ENE,71,3.0,7.0,81,0.00,,,0.00,,2013-01-15 05:03:00,
2013-01-14 23:12:00,22.0,17.0,30.13,ENE,71,3.0,7.0,81,0.00,,,0.00,,2013-01-15 05:12:00,
2013-01-14 23:22:00,22.0,17.0,30.13,ENE,71,3.0,7.0,81,0.00,,,0.00,,2013-01-15 05:22:00,
2013-01-14 23:33:00,21.0,16.0,30.14,SE,127,2.0,9.0,81,0.00,,,0.00,,2013-01-15 05:33:00,
2013-01-14 23:42:00,21.0,16.0,30.14,SE,127,2.0,9.0,81,0.00,,,0.00,,2013-01-15 05:42:00,
2013-01-14 23:53:00,21.0,16.0,30.14,SE,127,2.0,9.0,81,0.00,,,0.00,,2013-01-15 05:53:00,